カタログに戻る

LATINSAT B

運用中通信LEO
NORAD 27606·PAYLOAD·🇦🇷 Argentina

打ち上げ Dec 20, 2002 から Baikonur Cosmodrome

Loading…

次のパス (今後24時間)

TLE

最新Source: Space-Track

元期: Sep 14, 2026, 22:25 UTC

1 27606U 02058B   26257.93411801  .00000502  00000-0  86910-4 0  9990
2 27606  64.5560 335.6270 0085627 252.4484 106.7251 14.77122000275350

AllMySatでLATINSAT Bをリアルタイム追跡

Download on the App Store